Weather in Yelionka

Russia / Bryansk Oblast     52°25′56″N   32°36′11″E
temp.,
°C
wind,
m/s
gust,
m/s
humid.,
%
clouds,
%
prec.,
mm/h
press.,
hPa
HPBL,
m
14 april, wed
wed1400:00+10sse3689100 0.1 1018155
03:00+9s369299 0.2 1018157
06:00+8sse3792100 0.0 1018206
09:00+10sse4881100 0.0 1018410
12:00+12sse4671100 0.0 1018710
15:00+15sse465399 0.1 10161570
18:00+14sse3459100 0.1 1015392
21:00+10ese3477100 0.3 101655
15 april, thu
thu1500:00+10se2283100 0.4 101551
03:00+10nne2382100 0.5 101447
06:00+9nne1186100 0.1 101416
09:00+9e3594100 2.2 1014212
12:00+13ene236541 1.1 1013761
15:00+14ene346298 2.4 1012931
18:00+13se2474100 0.8 1012160
21:00+11ene3587100 1.6 1012131
16 april, fri
fri1600:00+10e238895 2.9 101191
03:00+8e489454 3.0 1012208
06:00+8ese4893100 0.1 1012303
09:00+9e488889 0.1 1014520
12:00+13ese686055 0.3 10131583
15:00+15se6949100 1.1 10132329
18:00+12sse686629 0.1 10151065
21:00+7sse238623 0.1 101759
17 april, sat
sat1700:00+6ene348922 0.0 101970
03:00+6ese369215 0.1 1020123
06:00+5e2291100 0.0 102014
09:00+9ene2275100 0.0 1021297
12:00+13nne2360100 0.0 10211087
15:00+12ne7980100 1.9 1020964
18:00+11ne71386100 1.3 1020942
21:00+11ene6128281 3.0 1021678
18 april, sun
sun1800:00+9ene6137899 0.0 1021475
03:00+7ne613777 0.0 1022373
06:00+5ne6137962 0.0 1022364
09:00+8e71081100 0.0 1023979
12:00+10se677364 0.1 1024997
15:00+10ese4670100 0.3 1025927
18:00+9ene357489 0.0 1025484
21:00+7ne498631 0.0 1025209